Regional Weather Roundup
Issued by NWS

Home | Current Version | Previous Version | Graphics & Text | Print | Product List | Glossary On
Versions: 1 2 3 4 5 6 7 8 9 10 11 12 13 14 15 16 17 18 19 20 21 22 23 24 25 26 27 28 29 30 31 32 33 34 35 36 37 38 39 40 41 42 43 44 45 46 47 48 49 50
000
ASUS43 KFSD 281610
RWRSD

WEATHER ROUNDUP FOR SOUTH DAKOTA
NATIONAL WEATHER SERVICE SIOUX FALLS SD
1100 AM CDT SAT MAY 28 2016

NOTE: "FAIR" INDICATES FEW OR NO CLOUDS BELOW 12,000 FEET WITH NO
SIGNIFICANT WEATHER AND/OR OBSTRUCTIONS TO VISIBILITY.


SDZ001>005-009-010-012>017-281700-
NORTHWEST AND NORTH CENTRAL SOUTH DAKOTA

CITY           SKY/WX    TMP DP  RH WIND       PRES   REMARKS
BUFFALO          N/A     68  47  46 NW5       29.83F
FAITH            N/A     67  46  47 VRB3      29.88S
MOBRIDGE       CLOUDY    67  55  65 N9        29.83S
$$

SDZ012>016-024>037-041>051-057-063-072>074-281700-
SOUTHWEST AND SOUTH CENTRAL SOUTH DAKOTA

CITY           SKY/WX    TMP DP  RH WIND       PRES   REMARKS
RAPID CTY ARPT SUNNY     66  46  48 VRB5      29.91S
PIERRE         CLOUDY    65  54  67 N8        29.84R
CUSTER         PTSUNNY   59  36  42 CALM      29.97S
ELLSWORTH AFB  SUNNY     65  47  51 VRB2      29.91R
PHILIP         CLOUDY    64  56  75 CALM      29.88S
PINE RIDGE     SUNNY     65  47  52 VRB5      29.92R
WINNER         FAIR      63  55  75 NW8       29.85S
$$

SDZ004>011-016>023-039-040-281700-
NORTHEAST SOUTH DAKOTA

CITY           SKY/WX    TMP DP  RH WIND       PRES   REMARKS
ABERDEEN       CLOUDY    64  59  83 NE9       29.83S
WATERTOWN      CLOUDY    60  57  89 NE8       29.80S
BROOKINGS      RAIN      59  58  96 NE6       29.79R
SISSETON         N/A     67  54  63 N7        29.80S
$$

SDZ017-020-022-023-036>040-048>070-281700-
SOUTHEAST SOUTH DAKOTA

CITY           SKY/WX    TMP DP  RH WIND       PRES   REMARKS
SIOUX FALLS    CLOUDY    63  60  90 N10       29.77S
HURON          LGT RAIN  61  60  97 N7        29.79S
CHAMBERLAIN    CLOUDY    62  60  96 NW7       29.83S
MITCHELL       LGT RAIN  61  60  97 NW7       29.80S FOG
YANKTON        CLOUDY    64  57  77 N18G24    29.74R
$$

ABBREVIATIONS USED IN REMARKS
   TC - TEMPERATURE IN CELSIUS
  WCI - WIND CHILL INDEX
   HX - HEAT INDEX
  VSB - VISIBILITY





USA.gov is the U.S. government's official web portal to all federal, state and local government web resources and services.